Weather History for Boerne Stage Field, TX

Change the Weather History Date:

Tuesday, May 7, 2013

  Actual Average (KSAT) Record (KSAT)
Temperature  
Mean Temperature 62 °F 75 °F  
Max Temperature 80 °F 85 °F 100 °F (1998)
Min Temperature 44 °F 65 °F 45 °F (1917)
Degree Days  
Heating Degree Days 3 0  
Month to date heating degree days 0  
Since 1 July heating degree days 1494  
Cooling Degree Days 0 10  
Month to date cooling degree days 64  
Year to date cooling degree days 323  
Growing Degree Days 12 (Base 50)    
Moisture  
Dew Point 47 °F    
Average Humidity 59    
Maximum Humidity 94    
Minimum Humidity 26    
Precipitation  
Precipitation 0.00 in 0.13 in 5.34 in (1972)
Month to date precipitation 0.79  
Year to date precipitation 8.75  
Snow  
Snow 0.00 in - - ()
Month to date snowfall  
Since 1 July snowfall  
Snow Depth -    
Sea Level Pressure  
Sea Level Pressure 30.04 in    
Wind  
Wind Speed 3 mph (SSE)    
Max Wind Speed 12 mph    
Max Gust Speed 17 mph    
Visibility 10 miles    
Events      
T = Trace of Precipitation, MM = Missing Value Source: NWS Daily Summary

Daily Weather History Graph

Daily Weather History Graph

Search for Another Location

Airport:

Trip Planner

Search our weather history database for the weather conditions in past years. The results will help you decide how hot, cold, wet, or windy it might be!

Date:

Astronomy

May. 07, 2013 Rise Set
Actual Time 6:47 AM CDT 8:15 PM CDT
Civil Twilight 6:21 AM CDT 8:41 PM CDT
Nautical Twilight 5:50 AM CDT 9:12 PM CDT
Astronomical Twilight 5:19 AM CDT 9:44 PM CDT
Moon 5:12 AM CDT (5/7) 6:24 PM CDT (5/7)
Length of Visible Light 14h 19m
Length of Day
13h 28m
Waning Crescent, 5% of the Moon is Illuminated
May 7
Waning Crescent
May 9
New
May 17
First Quarter
May 24
Full
May 31
Last Quarter

Hourly Weather History & Observations

Time (CDT) Temp. Dew Point Humidity Pressure Visibility Wind Dir Wind Speed Gust Speed Precip Events Conditions
12:15 AM 50.0 °F 46.4 °F 87% 30.07 in 10.0 mi Calm Calm - N/A   Clear
12:35 AM 50.0 °F 46.4 °F 87% 30.07 in 10.0 mi Calm Calm - N/A   Clear
12:55 AM 50.0 °F 46.4 °F 87% 30.07 in 10.0 mi Calm Calm - N/A   Clear
1:15 AM 50.0 °F 44.6 °F 82% 30.07 in 10.0 mi Calm Calm - N/A   Clear
1:35 AM 50.0 °F 44.6 °F 82% 30.08 in 10.0 mi Calm Calm - N/A   Clear
1:55 AM 50.0 °F 44.6 °F 82% 30.07 in 10.0 mi Calm Calm - N/A   Clear
2:15 AM 48.2 °F 44.6 °F 87% 30.07 in 10.0 mi Calm Calm - N/A   Clear
2:35 AM 46.4 °F 44.6 °F 93% 30.06 in 10.0 mi Calm Calm - N/A   Clear
2:55 AM 46.4 °F 44.6 °F 93% 30.06 in 10.0 mi Calm Calm - N/A   Clear
3:15 AM 46.4 °F 44.6 °F 93% 30.06 in 10.0 mi Calm Calm - N/A   Clear
3:35 AM 46.4 °F 44.6 °F 93% 30.06 in 10.0 mi Calm Calm - N/A   Clear
3:55 AM 46.4 °F 44.6 °F 93% 30.06 in 10.0 mi Calm Calm - N/A   Clear
4:15 AM 46.4 °F 42.8 °F 87% 30.06 in 10.0 mi Calm Calm - N/A   Clear
4:35 AM 46.4 °F 44.6 °F 93% 30.06 in 10.0 mi Calm Calm - N/A   Clear
4:55 AM 46.4 °F 42.8 °F 87% 30.05 in 10.0 mi Calm Calm - N/A   Clear
5:15 AM 46.4 °F 42.8 °F 87% 30.06 in 10.0 mi Calm Calm - N/A   Clear
5:35 AM 46.4 °F 42.8 °F 87% 30.06 in 10.0 mi Calm Calm - N/A   Clear
5:55 AM 44.6 °F 42.8 °F 93% 30.06 in 10.0 mi Calm Calm - N/A   Clear
6:15 AM 46.4 °F 42.8 °F 87% 30.07 in 10.0 mi Calm Calm - N/A   Clear
6:35 AM 44.6 °F 42.8 °F 93% 30.08 in 10.0 mi Calm Calm - N/A   Clear
6:55 AM 44.6 °F 42.8 °F 93% 30.10 in 10.0 mi Calm Calm - N/A   Clear
7:15 AM 46.4 °F 44.6 °F 93% 30.10 in 10.0 mi Calm Calm - N/A   Clear
7:35 AM 46.4 °F 44.6 °F 93% 30.09 in 10.0 mi Calm Calm - N/A   Clear
7:55 AM 51.8 °F 50.0 °F 94% 30.09 in 10.0 mi Calm Calm - N/A   Clear
8:15 AM 57.2 °F 53.6 °F 88% 30.10 in 10.0 mi Calm Calm - N/A   Clear
8:35 AM 60.8 °F 53.6 °F 77% 30.10 in 10.0 mi Calm Calm - N/A   Clear
8:55 AM 64.4 °F 53.6 °F 68% 30.10 in 10.0 mi SSW 6.9 mph - N/A   Clear
9:15 AM 66.2 °F 51.8 °F 60% 30.10 in 10.0 mi South 9.2 mph - N/A   Clear
9:35 AM 68.0 °F 51.8 °F 56% 30.10 in 10.0 mi South 6.9 mph - N/A   Clear
9:55 AM 68.0 °F 51.8 °F 56% 30.10 in 10.0 mi South 5.8 mph - N/A   Clear
10:15 AM 69.8 °F 51.8 °F 53% 30.10 in 10.0 mi South 8.1 mph - N/A   Clear
10:35 AM 71.6 °F 51.8 °F 50% 30.10 in 10.0 mi South 9.2 mph - N/A   Clear
10:55 AM 71.6 °F 53.6 °F 53% 30.10 in 10.0 mi SE 6.9 mph - N/A   Clear
11:15 AM 71.6 °F 51.8 °F 50% 30.09 in 10.0 mi SSE 9.2 mph 16.1 mph N/A   Clear
11:35 AM 73.4 °F 50.0 °F 44% 30.10 in 10.0 mi SSE 8.1 mph 16.1 mph N/A   Clear
11:55 AM 73.4 °F 50.0 °F 44% 30.10 in 10.0 mi SSE 9.2 mph - N/A   Clear
12:15 PM 73.4 °F 50.0 °F 44% 30.10 in 10.0 mi SSE 6.9 mph 17.3 mph N/A   Clear
12:35 PM 75.2 °F 50.0 °F 41% 30.08 in 10.0 mi SSE 10.4 mph - N/A   Clear
12:55 PM 75.2 °F 50.0 °F 41% 30.08 in 10.0 mi SSE 10.4 mph - N/A   Clear
1:15 PM 77.0 °F 44.6 °F 32% 30.07 in 10.0 mi South 9.2 mph - N/A   Clear
1:35 PM 77.0 °F 46.4 °F 34% 30.07 in 10.0 mi SSE 11.5 mph - N/A   Clear
1:55 PM 77.0 °F 46.4 °F 34% 30.06 in 10.0 mi South 8.1 mph - N/A   Clear
2:15 PM 78.8 °F 46.4 °F 32% 30.05 in 10.0 mi SE 8.1 mph - N/A   Clear
2:35 PM 78.8 °F 46.4 °F 32% 30.04 in 10.0 mi SW 4.6 mph 16.1 mph N/A   Clear
2:55 PM 78.8 °F 46.4 °F 32% 30.03 in 10.0 mi South 8.1 mph - N/A   Clear
3:15 PM 80.6 °F 42.8 °F 26% 30.03 in 10.0 mi SSE 10.4 mph 17.3 mph N/A   Clear
3:35 PM 80.6 °F 42.8 °F 26% 30.02 in 10.0 mi SSE 9.2 mph - N/A   Clear
3:55 PM 80.6 °F 42.8 °F 26% 30.01 in 10.0 mi South 8.1 mph - N/A   Clear
4:15 PM 80.6 °F 44.6 °F 28% 30.00 in 10.0 mi SSE 5.8 mph 16.1 mph N/A   Clear
4:35 PM 78.8 °F 44.6 °F 30% 30.00 in 10.0 mi SSW 9.2 mph 16.1 mph N/A   Clear
4:55 PM 80.6 °F 44.6 °F 28% 29.99 in 10.0 mi South 4.6 mph - N/A   Clear
5:15 PM 78.8 °F 44.6 °F 30% 29.98 in 10.0 mi South 9.2 mph - N/A   Clear
5:35 PM 78.8 °F 44.6 °F 30% 29.98 in 10.0 mi South 8.1 mph - N/A   Clear
5:55 PM 80.6 °F 44.6 °F 28% 29.97 in 10.0 mi SSE 6.9 mph - N/A   Clear
6:15 PM 78.8 °F 44.6 °F 30% 29.97 in 10.0 mi SSE 6.9 mph - N/A   Clear
6:35 PM 78.8 °F 46.4 °F 32% 29.96 in 10.0 mi SSE 8.1 mph - N/A   Clear
6:55 PM 78.8 °F 46.4 °F 32% 29.96 in 10.0 mi SE 3.5 mph - N/A   Clear
7:15 PM 78.8 °F 46.4 °F 32% 29.96 in 10.0 mi ESE 9.2 mph - N/A   Clear
7:35 PM 77.0 °F 44.6 °F 32% 29.96 in 10.0 mi SE 4.6 mph - N/A   Clear
7:55 PM 75.2 °F 46.4 °F 36% 29.96 in 10.0 mi ESE 4.6 mph - N/A   Clear
8:15 PM 73.4 °F 46.4 °F 38% 29.97 in 10.0 mi ESE 4.6 mph - N/A   Clear
8:35 PM 71.6 °F 46.4 °F 41% 29.98 in 10.0 mi ESE 3.5 mph - N/A   Clear
8:55 PM 69.8 °F 48.2 °F 46% 29.99 in 10.0 mi Calm Calm - N/A   Clear
9:15 PM 68.0 °F 50.0 °F 52% 29.99 in 10.0 mi Calm Calm - N/A   Clear
9:35 PM 66.2 °F 50.0 °F 56% 29.99 in 10.0 mi Calm Calm - N/A   Clear
9:55 PM 64.4 °F 50.0 °F 59% 30.00 in 10.0 mi Calm Calm - N/A   Clear
10:15 PM 62.6 °F 50.0 °F 63% 30.00 in 10.0 mi Calm Calm - N/A   Clear
10:35 PM 62.6 °F 50.0 °F 63% 30.01 in 10.0 mi Calm Calm - N/A   Clear
10:55 PM 62.6 °F 51.8 °F 68% 30.01 in 10.0 mi South 3.5 mph - N/A   Clear
11:15 PM 66.2 °F 51.8 °F 60% 30.01 in 10.0 mi South 4.6 mph - N/A   Clear
11:35 PM 68.0 °F 53.6 °F 60% 30.02 in 10.0 mi SSE 6.9 mph - N/A   Clear
11:55 PM 68.0 °F 53.6 °F 60% 30.02 in 10.0 mi South 6.9 mph - N/A   Clear